This demonstration page uses our WeatherBlox Daily Observations layout. Learn more.

Left ArrowRight Arrow

Hourly Observations for February 13, 2020

Temp ( °F °C ) Dew Point ( °F °C ) Humidity (%) Winds ( mph kmh ) Pressure ( in mb ) Visibility ( mi km ) Precip ( " mm )
12:56 am 00:56 Clear 3 -16.1 -7 -21.7 62 62 N 18 30 30.37 1028 10 16 0.00 0.00
1:56 am 01:56 Mostly Clear 3 -16.1 -7 -21.7 62 62 N 18 30 30.38 1029 10 16 0.00 0.00
2:56 am 02:56 Clear 2 -16.7 -10 -23.3 57 57 N 16 26 30.41 1030 10 16 0.00 0.00
3:56 am 03:56 Clear 1 -17.2 -9 -22.8 62 62 NNW 10 17 30.42 1030 10 16 0.00 0.00
4:56 am 04:56 Mostly Clear 0 -17.8 -10 -23.3 62 62 NNW 14 22 30.44 1031 10 16 0.00 0.00
5:56 am 05:56 Clear -1 -18.3 -9 -22.8 68 68 N 14 22 30.46 1032 10 16 0.00 0.00
6:56 am 06:56 Clear -1 -18.3 -10 -23.3 65 65 N 13 20 30.48 1032 10 16 0.00 0.00
7:56 am 07:56 Sunny -1 -18.3 -11 -23.9 62 62 N 9 15 30.51 1033 10 16 0.00 0.00
8:56 am 08:56 Sunny 0 -17.8 -10 -23.3 62 62 N 10 17 30.54 1034 10 16 0.00 0.00
9:56 am 09:56 Sunny 4 -15.6 -9 -22.8 54 54 N 12 19 30.55 1034 10 16 0.00 0.00
10:56 am 10:56 Sunny 7 -13.9 -9 -22.8 47 47 VRB 6 9 30.55 1035 10 16 0.00 0.00
11:56 am 11:56 Sunny 10 -12.2 -10 -23.3 39 39 NNW 5 7 30.55 1035 10 16 0.00 0.00
12:56 pm 12:56 Mostly Sunny 12 -11.1 -9 -22.8 38 38 Calm 30.52 1033 10 16 0.00 0.00
1:56 pm 13:56 Partly Cloudy 14 -10 -9 -22.8 35 35 N 7 11 30.48 1032 10 16 0.00 0.00
2:56 pm 14:56 Sunny 17 -8.3 -6 -21.1 35 35 NNE 5 7 30.47 1032 10 16 0.00 0.00
3:56 pm 15:56 Sunny 18 -7.8 -5 -20.6 35 35 Calm 30.47 1032 10 16 0.00 0.00
4:56 pm 16:56 Sunny 18 -7.8 -4 -20 37 37 SSW 5 7 30.47 1032 10 16 0.00 0.00
5:56 pm 17:56 Sunny 16 -8.9 -3 -19.4 43 43 ESE 6 9 30.47 1032 10 16 0.00 0.00
6:56 pm 18:56 Clear 13 -10.6 1 -17.2 59 59 SE 7 11 30.48 1032 10 16 0.00 0.00
7:56 pm 19:56 Clear 10 -12.2 0 -17.8 63 63 SSE 9 15 30.49 1032 10 16 0.00 0.00
8:56 pm 20:56 Clear 11 -11.7 1 -17.2 64 64 S 8 13 30.49 1033 10 16 0.00 0.00
9:56 pm 21:56 Clear 11 -11.7 1 -17.2 64 64 S 9 15 30.49 1033 10 16 0.00 0.00
10:56 pm 22:56 Clear 10 -12.2 1 -17.2 67 67 S 9 15 30.48 1032 10 16 0.00 0.00
11:56 pm 23:56 Clear 11 -11.7 1 -17.2 64 64 S 12 19 30.46 1031 10 16 0.00 0.00

Powered by AerisWeather